Hourly Data Report for October 15, 2016

All times are specified in Local Standard Time (LST). Add 1 hour to adjust for Daylight Saving Time where and when it is observed.

MONCTON INTL A
NEW BRUNSWICK

46°06'44.000" N
64°40'43.000" W
70.70 m
8103201
71705
YQM

Download Data

Hourly Data (October 2016)
Hourly Data Report for October 15, 2016
Temp Definition
°C
Dew Point Temp Definition
°C
Rel Hum Definition
%
Wind Dir Definition
10's deg

Wind Spd Definition
km/h
Visibility Definition
km
Stn Press Definition
kPa
Hmdx Definition


Wind Chill Definition


Weather Definition


TIME
00:00 Legend Double Dagger 3.0 -2.1 69 33 13 24.1 101.82     LegendNANA
01:00 Legend Double Dagger 2.8 -2.1 70 32 15 24.1 101.86     LegendNANA
02:00 Legend Double Dagger 1.4 -2.4 76 31 11 24.1 101.85     Cloudy
03:00 Legend Double Dagger 1.6 -2.7 73 33 17 24.1 101.87     LegendNANA
04:00 Legend Double Dagger 1.6 -3.5 69 33 15 24.1 101.88     LegendNANA
05:00 Legend Double Dagger 0.9 -3.2 74 32 13 24.1 101.95     Mainly Clear
06:00 Legend Double Dagger 0.4 -3.0 78 32 14 24.1 101.99     LegendNANA
07:00 Legend Double Dagger 0.0 -2.9 81 30 9 24.1 101.99   -3 LegendNANA
08:00 Legend Double Dagger 2.7 -0.9 77 32 10 24.1 102.05     Mainly Clear
09:00 Legend Double Dagger 5.8 0.4 68 32 14 24.1 102.11     LegendNANA
10:00 Legend Double Dagger 8.1 1.3 62 34 13 24.1 102.17     LegendNANA
11:00 Legend Double Dagger 8.9 1.4 59 1 19 24.1 102.20     Mostly Cloudy
12:00 Legend Double Dagger 10.6 0.7 50 2 19 24.1 102.12     LegendNANA
13:00 Legend Double Dagger 10.3 -0.2 48 2 19 24.1 102.05     LegendNANA
14:00 Legend Double Dagger 10.5 0.6 50 2 13 24.1 101.99     Mostly Cloudy
15:00 Legend Double Dagger 10.0 -1.4 45 3 10 24.1 101.97     LegendNANA
16:00 Legend Double Dagger 9.1 -1.9 46 4 11 24.1 101.95     LegendNANA
17:00 Legend Double Dagger 7.4 -1.0 55 4 9 24.1 101.93     Mainly Clear
18:00 Legend Double Dagger 4.4 -1.2 67 6 10 24.1 101.87     LegendNANA
19:00 Legend Double Dagger 4.4 -1.0 68 6 7 24.1 101.89     LegendNANA
20:00 Legend Double Dagger 3.0 -0.8 76 11 9 24.1 101.88     Mostly Cloudy
21:00 Legend Double Dagger 2.5 -0.9 78 12 9 24.1 101.87     LegendNANA
22:00 Legend Double Dagger 2.8 -0.8 77 14 10 24.1 101.83     LegendNANA
23:00 Legend Double Dagger 1.5 -0.8 85 23 10 24.1 101.81     Mainly Clear

Notes on Data Quality.

Legend

  • E = Estimated
  • M = Missing
  • NA = Not Available
  • ‡ = Partner data that is not subject to review by the National Climate Archives
Date modified: